User: anonymous   Login
Location: ?
(35.4996°N, 139.3166°E)
Time: 13:09:49
(UTC+00:00)
Language:

CZ-4 R/B - Orbit

View from above orbital plane
View from above orbital plane
View from above satellite
View from above satellite

Ground track
Ground track

The orbit data is extracted from the following two-line orbital elements,

1 28059U 03049C   24175.86212833  .00000576  00000-0  14692-3 0  9995
2 28059  98.6109 138.4199 0048651 337.2043  22.6992 14.53809104 95919
Epoch (UTC): 23 June 2024 20:41:27
Eccentricity: 0.0048651
inclination: 98.6109°
perigee height: 679 km
apogee height: 748 km
right ascension of ascending node: 138.4199°
argument of perigee: 337.2043°
revolutions per day: 14.53809104
mean anomaly at epoch: 22.6992°
orbit number at epoch: 9591

The dashed part of the orbit path shows where the satellite is in the earth's shadow,  

DLR